Weather History for Burley, ID

Change the Weather History Date:

Wednesday, February 6, 2013

  Actual Average Record
Temperature  
Mean Temperature 34 °F 29 °F  
Max Temperature 42 °F 37 °F 65 °F (1963)
Min Temperature 25 °F 20 °F -12 °F (1989)
Degree Days  
Heating Degree Days 31 36  
Month to date heating degree days 179 220  
Since 1 July heating degree days 4024 4286  
Cooling Degree Days 0 0  
Month to date cooling degree days 0 0  
Year to date cooling degree days 0 0  
Moisture  
Dew Point 28 °F    
Average Humidity 76    
Maximum Humidity 100    
Minimum Humidity 51    
Precipitation  
Precipitation 0.00 in 0.03 in 0.49 in (1949)
Month to date precipitation 0.00 0.15  
Year to date precipitation 0.17 1.06  
Sea Level Pressure  
Sea Level Pressure 30.06 in    
Wind  
Wind Speed 9 mph (WSW)    
Max Wind Speed 21 mph    
Max Gust Speed 26 mph    
Visibility 8 miles    
Events Fog    
T = Trace of Precipitation, MM = Missing Value Source: NWS Daily Summary

Daily Weather History Graph

Daily Weather History Graph

Search for Another Location

Airport:

Trip Planner

Search our weather history database for the weather conditions in past years. The results will help you decide how hot, cold, wet, or windy it might be!

Date:

Astronomy

Feb. 06, 2013 Rise Set
Actual Time 7:43 AM MST 5:55 PM MST
Civil Twilight 7:13 AM MST 6:25 PM MST
Nautical Twilight 6:40 AM MST 6:58 PM MST
Astronomical Twilight 6:07 AM MST 7:31 PM MST
Moon 4:33 AM MST (2/6) 2:16 PM MST (2/6)
Length of Visible Light 11h 11m
Length of Day
10h 12m
Waning Crescent, 16% of the Moon is Illuminated
Feb 6
Waning Crescent
Feb 10
New
Feb 17
First Quarter
Feb 25
Full
Mar 4
Last Quarter

Hourly Weather History & Observations

Time (MST) Temp. Windchill Dew Point Humidity Pressure Visibility Wind Dir Wind Speed Gust Speed Precip Events Conditions
12:53 AM 34.0 °F 29.8 °F 30.0 °F 85% 29.93 in 10.0 mi West 4.6 mph - N/A   Clear
1:53 AM 33.1 °F 24.4 °F 30.0 °F 89% 29.94 in 10.0 mi West 11.5 mph - N/A   Clear
2:03 AM 33.8 °F 24.3 °F 30.2 °F 87% 29.95 in 8.0 mi West 13.8 mph 21.9 mph N/A   Scattered Clouds
2:07 AM 32.0 °F 20.8 °F 30.2 °F 93% 29.96 in 2.5 mi WNW 17.3 mph 23.0 mph N/A   Mostly Cloudy
2:10 AM 32.0 °F 21.6 °F 30.2 °F 93% 29.96 in 1.2 mi West 15.0 mph 23.0 mph N/A   Mostly Cloudy
2:18 AM 30.2 °F 20.2 °F 30.2 °F 100% 29.96 in 0.5 mi West 12.7 mph 21.9 mph N/A Fog Light Freezing Fog
2:53 AM 30.0 °F 24.1 °F 30.0 °F 100% 29.97 in 0.2 mi West 5.8 mph - N/A Fog Light Freezing Fog
3:43 AM 30.2 °F 23.4 °F 30.2 °F 100% 29.99 in 1.2 mi SSW 6.9 mph - N/A   Overcast
3:49 AM 30.2 °F 25.4 °F 30.2 °F 100% 29.99 in 2.0 mi SSW 4.6 mph - N/A   Overcast
3:53 AM 30.0 °F 24.1 °F 30.0 °F 100% 29.99 in 2.5 mi SW 5.8 mph - N/A   Overcast
4:00 AM 28.4 °F 19.7 °F 28.4 °F 100% 29.98 in 4.0 mi SW 9.2 mph - N/A   Overcast
4:18 AM 30.2 °F 22.6 °F 28.4 °F 93% 29.99 in 10.0 mi WSW 8.1 mph - N/A   Overcast
4:53 AM 32.0 °F 23.0 °F 30.0 °F 92% 29.99 in 10.0 mi WSW 11.5 mph - N/A   Overcast
5:53 AM 34.0 °F 25.5 °F 28.9 °F 82% 30.00 in 10.0 mi WSW 11.5 mph - N/A   Mostly Cloudy
6:53 AM 33.1 °F 23.0 °F 28.0 °F 82% 30.03 in 10.0 mi WSW 15.0 mph - N/A   Clear
7:53 AM 33.1 °F 24.4 °F 27.0 °F 78% 30.07 in 10.0 mi SW 11.5 mph - N/A   Clear
8:53 AM 35.1 °F 25.5 °F 27.0 °F 72% 30.10 in 10.0 mi West 15.0 mph 25.3 mph N/A   Clear
9:53 AM 37.0 °F 27.4 °F 28.0 °F 70% 30.12 in 10.0 mi West 17.3 mph - N/A   Clear
10:53 AM 37.9 °F 28.9 °F 27.0 °F 65% 30.13 in 10.0 mi WSW 16.1 mph 24.2 mph N/A   Clear
11:53 AM 39.9 °F 31.4 °F 27.0 °F 60% 30.13 in 10.0 mi West 16.1 mph 25.3 mph N/A   Clear
12:53 PM 39.9 °F 31.1 °F 28.0 °F 63% 30.11 in 10.0 mi West 17.3 mph 23.0 mph N/A   Clear
1:53 PM 41.0 °F 34.3 °F 27.0 °F 57% 30.11 in 10.0 mi West 11.5 mph 20.7 mph N/A   Clear
2:53 PM 41.0 °F 33.1 °F 26.1 °F 55% 30.12 in 10.0 mi WSW 15.0 mph 20.7 mph N/A   Partly Cloudy
3:53 PM 41.0 °F 33.9 °F 25.0 °F 53% 30.13 in 10.0 mi West 12.7 mph 18.4 mph N/A   Clear
4:53 PM 39.9 °F 35.1 °F 25.0 °F 55% 30.14 in 10.0 mi West 6.9 mph - N/A   Clear
5:53 PM 36.0 °F 31.1 °F 24.1 °F 62% 30.16 in 10.0 mi West 5.8 mph - N/A   Clear
6:53 PM 30.9 °F - 24.1 °F 76% 30.17 in 10.0 mi Calm Calm - N/A   Clear
7:53 PM 28.0 °F - 25.0 °F 88% 30.19 in 10.0 mi Calm Calm - N/A   Clear
8:53 PM 28.9 °F - 26.1 °F 89% 30.19 in 10.0 mi Calm Calm - N/A   Clear
9:53 PM 27.0 °F - 25.0 °F 92% 30.19 in 10.0 mi Calm Calm - N/A   Clear
10:53 PM 26.1 °F - 24.1 °F 92% 30.19 in 10.0 mi Calm Calm - N/A   Clear
11:53 PM 27.0 °F - 24.1 °F 89% 30.17 in 10.0 mi Calm Calm - N/A   Clear